Location: Krasnoyarskiy Pitomnik
(51.1333°N, 71.6167°E)
Time: 10:19:33
(UTC+00:00)

Cosmos 1943 Rocket - Pass Details

Date: 22 October 2021
Orbit: 811 x 844 km, 71.0° (Epoch: 06 December)

Event Time Altitude Azimuth Distance (km) Brightness Sun altitude
Rises 15:57:40 0° 331° (NNW) 3,416 6.1 -35.9°
Reaches altitude 10° 16:00:23 10° 341° (NNW) 2,478 5.1 -36.3°
Enters shadow 16:02:30 20° 356° (N) 1,845 4.2 -36.6°
